Regional Weather Roundup
Issued by NWS

Home | Current Version | Previous Version | Text Only | Print | Product List | Glossary Off
Versions: 1 2 3 4 5 6 7 8 9 10 11 12 13 14 15 16 17 18 19 20 21 22 23 24 25 26 27 28 29 30 31 32 33 34 35 36 37 38 39 40 41 42 43 44 45 46 47 48 49 50

000
ASUS45 KCYS 042210
RWRWY

WYOMING REGIONAL WEATHER ROUNDUP
NATIONAL WEATHER SERVICE CHEYENNE WY
400 PM MDT SAT JUL 04 2015

NOTE:  "FAIR" INDICATES FEW OR NO CLOUDS BELOW 12,000 FEET
WITH NO SIGNIFICANT WEATHER AND/OR OBSTRUCTIONS TO VISIBILITY.

WYZ001-042300-
YELLOWSTONE NATIONAL PARK

CITY           SKY/WX    TMP DP  RH WIND       PRES   REMARKS
LK YELLOWSTONE   N/A     79  33  19 VRB5      30.17F
W YELLOWSTONE  NOT AVBL

$$
WYZ002>013-054>058-071-098>099-042300-
NORTHERN WYOMING

CITY           SKY/WX    TMP DP  RH WIND       PRES   REMARKS
JACKSON        FAIR      88  37  16 W10G17    30.04F
CODY           FAIR      91  43  18 NE9       29.89F
GREYBULL       FAIR      99  35  10 NW13      29.79F HX  93
WORLAND        FAIR      96  44  16 VRB6      29.83F HX  92
SHERIDAN       FAIR      94  47  20 S9        29.84F HX  90
BUFFALO        FAIR      90  49  24 S6        29.93F
GILLETTE       FAIR      91  46  21 SE3       29.88F
HULETT         FAIR      88  50  27 CALM      29.90S
NEWCASTLE      FAIR      90  43  19 N10       29.89F

$$
WYZ014>020-022>026-101>103-042300-
CENTRAL WYOMING

CITY           SKY/WX    TMP DP  RH WIND       PRES   REMARKS
BIG PINEY      FAIR      89  30  12 NW15G22   30.09F
PINEDALE       FAIR      86  30  13 NW20G30   30.09F
DUBOIS         FAIR      81  30  16 NW6       30.07S
LANDER         FAIR      93  44  18 NE7       29.91F
RIVERTON       FAIR      92  41  17 CALM      29.92F
CASPER         FAIR      95  41  15 NW10      29.92F HX  91
DOUGLAS        FAIR      93  50  23 VRB6      29.91F HX  90

$$
WYZ021-027>030-104>119-042300-
SOUTHERN WYOMING

CITY           SKY/WX    TMP DP  RH WIND       PRES   REMARKS
EVANSTON       PTSUNNY   79  48  33 NE9       30.14F
KEMMERER       FAIR      81  37  21 SW14G25   30.13F
FORT BRIDGER   PTCLDY    82  39  21 NW9       30.15F
ROCK SPRINGS   FAIR      86  40  19 SW5       30.06F
DIXON          CLOUDY    79  46  31 NW12      30.11S
RAWLINS        FAIR      89  39  17 W14G21    30.06F
LARAMIE        PTSUNNY   82  45  27 SW8       30.11S
CHEYENNE       FAIR      89  46  22 N8        30.02F
TORRINGTON     FAIR      94  50  22 VRB5      29.85F HX  91
PINE BLUFFS    FAIR      91  50  24 SE8G17    29.96S

$$


USA.gov is the U.S. government's official web portal to all federal, state and local government web resources and services.